DW6352 Weather Reports


Display with metric or nautical units.
time (UTC)temp
F
wind
direction
speed
MPH
gust
MPH
rain 1hr
in
rain 24hr
in
rain mn
in
humidity
%
barometer
mb
20260503194557 66 342 7.0 13.0 0.00 0.00 0.00 23 1004.4
20260503193053 66 307 7.0 14.0 0.00 0.00 0.00 23 1004.7
20260503191551 66 10 8.0 21.0 0.00 0.00 0.00 23 1004.8
20260503190051 65 308 9.0 20.0 0.00 0.00 0.00 22 1005.1
20260503184551 65 25 10.0 21.0 0.00 0.00 0.00 20 1005.2
20260503183049 65 360 14.0 24.0 0.00 0.00 0.00 20 1005.3
20260503181559 66 349 11.0 22.0 0.00 0.00 0.00 25 1005.3
20260503180047 65 317 10.0 18.0 0.00 0.00 0.00 30 1005.3
20260503174544 64 316 9.0 17.0 0.00 0.00 0.00 30 1005.6
20260503173053 64 310 10.0 22.0 0.00 0.00 0.00 27 1005.6
20260503171540 64 329 11.0 20.0 0.00 0.00 0.00 27 1005.6
20260503081540 50 167 2.0 6.0 0.00 0.00 0.00 60 1004.3
20260503071531 52 55 4.0 7.0 0.00 0.00 0.00 55 1004.8
20260503054517 54 157 7.0 14.0 0.00 0.00 0.00 50 1005.6
20260503053013 54 175 7.0 15.0 0.00 0.00 0.00 51 1005.9
20260503051509 54 159 5.0 8.0 0.00 0.00 0.00 50 1006.0
20260503050006 55 165 3.0 7.0 0.00 0.00 0.00 50 1006.2
20260503044504 55 157 2.0 7.0 0.00 0.00 0.00 50 1006.4
20260503043002 56 127 3.0 8.0 0.00 0.00 0.00 50 1006.6
20260503041613 56 149 2.0 7.0 0.00 0.00 0.00 48 1006.9
20260503040106 56 131 2.0 6.0 0.00 0.00 0.00 48 1007.2
20260503034556 57 119 2.0 8.0 0.00 0.00 0.00 46 1007.4
20260503033107 57 134 3.0 7.0 0.00 0.00 0.00 46 1007.5
20260503031555 58 168 2.0 7.0 0.00 0.00 0.00 45 1007.9
20260503030052 59 169 3.0 7.0 0.00 0.00 0.00 43 1008.1
20260503024552 59 164 1.0 7.0 0.00 0.00 0.00 42 1008.5
20260503023057 60 175 3.0 7.0 0.00 0.00 0.00 40 1008.8
20260503021550 60 249 4.0 7.0 0.00 0.00 0.00 39 1008.9
20260503020045 61 246 6.0 12.0 0.00 0.00 0.00 38 1009.0
20260503014545 61 246 7.0 14.0 0.00 0.00 0.00 36 1008.9
20260503013045 61 273 8.0 16.0 0.00 0.00 0.00 37 1009.0
20260503011558 61 246 3.0 10.0 0.00 0.00 0.00 39 1009.0
20260503010052 61 219 2.0 4.0 0.00 0.00 0.00 39 1008.9
20260503004543 61 181 4.0 9.0 0.00 0.00 0.00 39 1008.9
20260503003057 61 201 4.0 7.0 0.00 0.00 0.00 39 1009.1
20260503001541 62 200 4.0 9.0 0.00 0.00 0.00 38 1009.1
20260503000057 62 238 5.0 10.0 0.00 0.00 0.00 36 1009.3
20260502234538 62 254 6.0 13.0 0.00 0.00 0.00 37 1009.6
20260502233038 63 223 10.0 20.0 0.00 0.00 0.00 36 1009.7
20260502231540 63 231 4.0 15.0 0.00 0.00 0.00 35 1009.8
20260502230033 63 202 10.0 16.0 0.00 0.00 0.00 34 1009.9
20260502224532 63 196 6.0 14.0 0.00 0.00 0.00 34 1009.9
20260502223031 63 180 9.0 14.0 0.00 0.00 0.00 33 1010.2
20260502221530 63 195 4.0 10.0 0.00 0.00 0.00 33 1010.3
20260502220030 63 215 4.0 10.0 0.00 0.00 0.00 34 1010.3
20260502214526 63 188 9.0 14.0 0.00 0.00 0.00 33 1010.5
20260502213029 63 190 8.0 12.0 0.00 0.00 0.00 34 1010.7
20260502211523 62 174 7.0 14.0 0.00 0.00 0.00 33 1010.9
20260502210021 62 188 5.0 16.0 0.00 0.00 0.00 34 1011.2
20260502204524 62 203 6.0 23.0 0.00 0.00 0.00 34 1011.6
20260502203019 62 309 5.0 16.0 0.00 0.00 0.00 33 1011.9
20260502201517 62 195 7.0 17.0 0.00 0.00 0.00 34 1012.2
20260502200011 61 216 10.0 22.0 0.00 0.00 0.00 34 1012.7